Regional Weather Roundup
Issued by NWS

Home | Current Version | Previous Version | Graphics & Text | Print | Product List | Glossary On
Versions: 1 2 3 4 5 6 7 8 9 10 11 12 13 14 15 16 17 18 19 20 21 22 23 24 25 26 27 28 29 30 31 32 33 34 35 36 37 38 39 40 41 42 43 44 45 46 47 48 49 50
000
ASUS43 KIND 272309
RWRIN

WEATHER ROUNDUP FOR INDIANA
NATIONAL WEATHER SERVICE INDIANAPOLIS IN
700 PM EDT MON APR 27 2015

NOTE: "FAIR" INDICATES FEW OR NO CLOUDS BELOW 12,000 FEET WITH NO
SIGNIFICANT WEATHER AND/OR OBSTRUCTIONS TO VISIBILITY.

* - STATION DOES NOT REPORT WEATHER SUCH AS PRECIPITATION OR FOG.

+ - STATION NOT QUALITY CONTROLLED BY THE NATIONAL WEATHER SERVICE.
    USE DATA WITH CAUTION...ESPECIALLY DEWPOINT AND RELATIVE
    HUMIDITY OBSERVATIONS.

INZ001>003-010>013-019-020-280000-
NORTHWEST INDIANA

CITY           SKY/WX    TMP DP  RH WIND       PRES   REMARKS
GARY /AIRPORT/ MOSUNNY   46  32  57 NE18      30.13F
KNOX *+        SUNNY     50  18  27 N13       30.08S
LA PORTE +     SUNNY     49  36  59 N12       30.10S
MICHIGAN CITY+ SUNNY     45  30  57 N7G18     30.11S
MONTICELLO +   SUNNY     53  35  50 N21G26    30.07S
VALPARAISO     SUNNY     47  33  58 N12       30.10S

$$

LMZ046-743>745-280000-
SOUTHERN LAKE MICHIGAN

STATION/POSITION TIME  TEMP    WIND        PRES    WAVE
                       AIR SEA DIR/SP/G            HT
                 (UTC) (F)     (DEG/KT/KT) (MB)    (FT)
BURNS HARBOR     2300   42      20/ 11/ 14 1020.3S
MICHIGAN CITY    2300   41      10/ 14/ 17   N/A
5NW MICH CITY    2300   41 45   10/ 10/ 14   N/A     3

$$

INZ004-005-014>016-021>024-280000-
NORTH CENTRAL INDIANA

CITY           SKY/WX    TMP DP  RH WIND       PRES   REMARKS
ELKHART        SUNNY     52  32  46 N6        30.08S
GOSHEN         CLOUDY    50  36  58 N12       30.07S
LOGANSPORT +   PTSUNNY   54  32  43 N8G17     30.06F
PERU/GRISSOM   CLOUDY    52  37  56 N12       30.05S
ROCHESTER +    SUNNY     54  36  50 N10       30.06F
SOUTH BEND     SUNNY     52  34  50 N13       30.09S
WARSAW +       CLOUDY    50  36  57 N9        30.06S

$$

INZ006>009-017-018-025>027-280000-
NORTHEAST INDIANA

CITY           SKY/WX    TMP DP  RH WIND       PRES   REMARKS
ANGOLA *+      PTSUNNY   48  34  57 NE8       30.06S
AUBURN +       CLOUDY    50  32  50 NE10      30.07S
FORT WAYNE     CLOUDY    51  37  58 N9        30.06S
HUNTINGTON +   CLOUDY    51  36  57 N10       30.05S

$$

INZ028-029-035-036-043>045-051>053-280000-
WEST CENTRAL INDIANA

CITY           SKY/WX    TMP DP  RH WIND       PRES   REMARKS
CRAWFORDSVL +  MOSUNNY   51  29  42 N20G25    30.06R
GREENCASTLE +  MOSUNNY   54  32  43 N14G21    30.05R
LAFAYETTE      SUNNY     53  34  48 N21G35    30.06F
TERRE HAUTE    MOSUNNY   57  38  48 NE16G22   30.06R

$$

INZ030>032-037>040-046>048-054>057-064-065-280000-
CENTRAL INDIANA

CITY           SKY/WX    TMP DP  RH WIND       PRES   REMARKS
CP ATTERBURY + CLOUDY    54  37  54 N12       30.04S
FISHERS *+     CLOUDY    52  39  62 N8        30.05
FRANKFORT +    MOSUNNY   54  37  53 NW17      30.07S
GREENWOOD *+   CLOUDY    54  34  47 N15       30.04R
INDIANAPOLIS   CLOUDY    54  35  48 N12G23    30.03S
-EAGLE CREEK   CLOUDY    53  35  50 N13       30.04R
KOKOMO *+      PTSUNNY   52  37  58 N15       30.05S
MARION +       CLOUDY    52  34  51 N15       30.05S
MT COMFORT *+  PTSUNNY   54  30  40 N13       30.04S
SHELBYVILLE    CLOUDY    55  38  52 N16       30.03R
ZIONSVILLE +   CLOUDY    53  35  51 N15       30.05S

$$

INZ033-034-041-042-049-050-058-059-280000-
EAST CENTRAL INDIANA

CITY           SKY/WX    TMP DP  RH WIND       PRES   REMARKS
MUNCIE         CLOUDY    52  36  54 NE13      30.04S

$$

INZ060-061-067>069-081>083-085>088-280000-
SOUTHWEST INDIANA

CITY           SKY/WX    TMP DP  RH WIND       PRES   REMARKS
EVANSVILLE     MOSUNNY   64  39  39 N14G21    30.01S
HUNTINGBURG *+ SUNNY     61  39  44 N10G21    30.00F
WASHINGTON +   SUNNY     59  32  35 N17       30.02R

$$

INZ062-063-066-070>080-084-089>092-280000-
SOUTH CENTRAL AND SOUTHEAST INDIANA

CITY           SKY/WX    TMP DP  RH WIND       PRES   REMARKS
BEDFORD +      SUNNY     57  34  41 N8G17     30.02R
BLOOMINGTON    PTSUNNY   56  37  49 N14       30.03R
MADISON *+     MOSUNNY   57  34  41 N8        30.03R
NORTH VERNON + CLOUDY    55  36  47 N12       30.02S
SEYMOUR +      MOSUNNY   59  37  44 N15G21    30.02R

$$




USA.gov is the U.S. government's official web portal to all federal, state and local government web resources and services.